Regional Weather Roundup
Issued by NWS

Home | Current Version | Previous Version | Graphics & Text | Print | Product List | Glossary On
Versions: 1 2 3 4 5 6 7 8 9 10 11 12 13 14 15 16 17 18 19 20 21 22 23 24 25 26 27 28 29 30 31 32 33 34 35 36 37 38 39 40 41 42 43 44 45 46 47 48 49 50
000
ASUS43 KTOP 292108
RWRKS

WEATHER ROUNDUP FOR KANSAS
NATIONAL WEATHER SERVICE GOODLAND KS
400 PM CDT FRI MAY 29 2015

NOTE:  "FAIR" INDICATES FEW OR NO CLOUDS BELOW 12,000 FEET WITH NO
SIGNIFICANT WEATHER AND/OR OBSTRUCTIONS TO VISIBILITY.

KSZ001>006-013>018-027>032-041>047-292200-
NORTHWEST KANSAS

CITY           SKY/WX    TMP DP  RH WIND       PRES   REMARKS
GOODLAND       MOSUNNY   71  52  50 N22G28    30.09R
HAYS           MOSUNNY   77  57  50 N3        29.98F
HILL CITY      MOSUNNY   79  55  43 N9        30.00F
RUSSELL        MOSUNNY   78  60  53 VRB6      29.96F
$$

KSZ061>065-074>080-084>089-292200-
SOUTHWEST KANSAS

CITY           SKY/WX    TMP DP  RH WIND       PRES   REMARKS
DODGE CITY     MOSUNNY   78  53  41 N8G18     30.02S
ELKHART          N/A     74  53  48 NE8         N/A
GARDEN CITY    MOSUNNY   73  55  53 N12       30.03F
GREAT BEND     MOSUNNY   77  57  50 NW8       29.96F
LIBERAL        PTSUNNY   75  55  50 N12       30.05F
PRATT          PTSUNNY   77  55  47 CALM      29.99F
$$

KSZ066>073-081>083-090>101-292200-
SOUTHEAST KANSAS

CITY           SKY/WX    TMP DP  RH WIND       PRES   REMARKS
CHANUTE        LGT RAIN  69  67  93 SE10      29.96F
COFFEYVILLE    LGT RAIN  68  67  96 E8        29.94F
HUTCHINSON     PTSUNNY   80  61  52 S5        29.95F
MEDICINE LODGE   N/A     81  57  43 VRB3      29.94F
NEWTON         CLOUDY    75  61  60 CALM      29.98F
PARSONS        RAIN      69  68  96 SE3       29.97F
WICHITA INTL   CLOUDY    78  62  57 SE7       29.95F
WICHITA JABRA  CLOUDY    75  65  70 SE7       29.95F
WICHITA MCCONL CLOUDY    76  64  66 CALM      29.95F
WINFIELD       CLOUDY    77  64  64 NW5       29.95F
$$

KSZ007>012-019>026-033>040-048>060-102>105-292200-
NORTHEAST KANSAS

CITY           SKY/WX    TMP DP  RH WIND       PRES   REMARKS
CONCORDIA      PTSUNNY   77  59  53 NW7       29.95F
EMPORIA        CLOUDY    72  65  78 S10       29.96F
LAWRENCE       CLOUDY    70  66  87 S8        29.97S
MANHATTAN      CLOUDY    77  67  71 SW7       29.94F
MARYSVILLE     CLOUDY    77  63  61 W9        29.94F
OLATHE IND     CLOUDY    68  66  93 S10       29.99F
OLATHE EXE     LGT RAIN  69  67  93 S9        29.98F
SALINA         PTSUNNY   79  60  52 W5        29.95F
TOPEKA BILLARD CLOUDY    71  66  84 S8        29.96F
TOPEKA FORBES  CLOUDY    71  66  84 S6        29.96F
$$



USA.gov is the U.S. government's official web portal to all federal, state and local government web resources and services.